[Iaude] MPEC P12: 2024 OA2 [a=1.70,e=0.44,i=1.0,H=27.4]

mpec at cfa.harvard.edu mpec at cfa.harvard.edu
Thu Aug 1 11:14:52 EDT 2024


M.P.E.C. 2024-P12                                Issued 2024 August 1, 15:13 UT

     The Minor Planet Electronic Circulars contain information on unusual
         minor planets, routine data on comets and natural satellites,
         and occasional editorial announcements.  They are published
    on behalf of Division F of the International Astronomical Union by the
          Minor Planet Center, Smithsonian Astrophysical Observatory,
                          Cambridge, MA 02138, U.S.A.
			  
             Prepared using the Tamkin Foundation Computer Network

                              MPC at CFA.HARVARD.EDU
            URL https://www.minorplanetcenter.net/    ISSN 1523-6714

                                    2024 OA2                                    


Observations:
     K24O02A* C2024 07 29.41416920 45 52.027-26 57 42.40         19.84wXEP012F51
     K24O02A  C2024 07 29.43490220 46 18.440-26 52 24.87         19.86wXEP012F51
     K24O02A  C2024 07 29.44525620 46 31.483-26 49 46.67         19.85wXEP012F51
     K24O02A  C2024 07 29.48887720 47 25.887-26 38 37.25         19.53GVEP012F51
     K24O02A  C2024 07 29.48952220 47 26.676-26 38 27.48         19.38GVEP012F51
     K24O02A 3C2024 07 30.45440521 05 44.922-23 12 38.60         20.17GVEP012T14
     K24O02A 3C2024 07 30.45538321 05 45.674-23 12 28.03         20.21GVEP012T14
     K24O02A 3C2024 07 30.45636021 05 46.425-23 12 17.49         20.17GVEP012T14
     K24O02A KB2024 08 01.02076721 23 43.33 -19 30 39.7          20.4 GXEP012I93
     K24O02A KB2024 08 01.03568821 23 49.86 -19 28 58.9          20.1 GXEP012I93
     K24O02A KB2024 08 01.05046321 23 56.24 -19 27 19.5          20.5 GXEP012I93

Observer details:
F51 Pan-STARRS 1, Haleakala.  Observers J. Herman, T. Lowe, P. Minguez, A.
    Schultz, I. Smith.  Measurers K. Chambers, T. de Boer, J. Fairlamb, H.
    Gao, M. Huber, C.-C. Lin, E. Magnier, Y. Ramanjooloo, R. Wainscoat, R.
    Weryk.  1.8-m Ritchey-Chretien + CCD.
I93 St Pardon de Conques.  Observer F. Losse.  0.40-m f/3.7 reflector + CMO.
T14 Canada-France-Hawaii Telescope, Maunakea.  Observers R. Wainscoat, J.
    Silva, V. Khatu.  Measurers R. Weryk, R. Wainscoat.  3.6-m f/4.1 reflector
    + CCD.

Orbital elements:
2024 OA2                                                 Earth MOID = 0.0050 AU
Epoch 2024 Oct. 17.0 TT = JDT 2460600.5                 Alexandersen            
M  51.48943              (2000.0)            P               Q                  
n   0.44289846     Peri.  305.83033     -0.13718075     +0.99046601             
a   1.7045115      Node   316.27955     -0.90283197     -0.13025268             
e   0.4449000      Incl.    1.04386     -0.40752407     -0.04484787             
P   2.23           H   27.45          G   0.15           U   8                  
Residuals in seconds of arc
240729 F51  0.1-  0.2-    240729 F51  0.0   0.2+    240801 I93  0.1+  0.6-
240729 F51  0.2+  0.2+    240730 T14  0.0   0.1+    240801 I93  0.3+  0.1+
240729 F51  0.1-  0.1-    240730 T14  0.1-  0.1+    240801 I93  0.3-  0.3+
240729 F51  0.1+  0.4+    240730 T14  0.1-  0.0

Ephemeris:
2024 OA2                 a,e,i = 1.70, 0.44, 1                   q = 0.9462
Date    TT    R. A. (2000) Decl.     Delta      r    Elong.  Phase     V
2024 07 02    10 23 53.0 +04 26 32   0.1266  0.9517    56.0   117.7    27.5
...
2024 07 17    10 54 26.7 -02 26 14   0.04779 0.9875    51.8   126.0    26.2
...
2024 07 25    14 02 57.0 -37 47 02   0.01177 1.0176    99.1    80.3    20.6
...
2024 07 31    21 13 11.1 -21 39 22   0.02956 1.0444   171.8     7.9    20.5
2024 08 01    21 23 31.3 -19 29 17   0.03457 1.0491   170.9     8.8    20.8
2024 08 02    21 31 00.3 -17 50 58   0.03967 1.0540   170.1     9.6    21.2
...
2024 08 08    21 51 35.6 -13 00 27   0.07157 1.0846   170.0     9.4    22.5
...
2024 08 16    21 59 48.3 -10 51 28   0.1168  1.1289   174.9     4.6    23.4
...
2024 08 31    22 04 34.9 -09 37 19   0.2122  1.2199   171.8     6.8    25.0

M. P. C. Staff               (C) Copyright 2024 MPC           M.P.E.C. 2024-P12





More information about the Iaude mailing list